| time (UTC) | temp F | wind direction | speed MPH | gust MPH | rain 1hr in | rain 24hr in | rain mn in | humidity % | barometer mb |
| 20260506044618 | 90 | 190 | 3.0 | 9.0 | 0.00 | 0.00 | 0.00 | 53 | 1010.2 |
| 20260506043017 | 89 | 263 | 4.0 | 9.0 | 0.00 | 0.00 | 0.00 | 54 | 1010.4 |
| 20260506041514 | 89 | 224 | 3.0 | 10.0 | 0.00 | 0.00 | 0.00 | 55 | 1010.7 |
| 20260506040012 | 89 | 201 | 2.0 | 10.0 | 0.00 | 0.00 | 0.00 | 56 | 1010.8 |
| 20260506034618 | 89 | 223 | 2.0 | 8.0 | 0.00 | 0.00 | 0.00 | 57 | 1011.0 |
| 20260506033010 | 89 | 161 | 3.0 | 11.0 | 0.00 | 0.00 | 0.00 | 55 | 1011.3 |
| 20260506031506 | 88 | 191 | 5.0 | 9.0 | 0.00 | 0.00 | 0.00 | 54 | 1011.5 |
| 20260506030004 | 88 | 243 | 1.0 | 8.0 | 0.00 | 0.00 | 0.00 | 57 | 1011.7 |
| 20260506024602 | 87 | 231 | 3.0 | 8.0 | 0.00 | 0.00 | 0.00 | 58 | 1011.9 |
| 20260506023105 | 87 | 241 | 4.0 | 12.0 | 0.00 | 0.00 | 0.00 | 57 | 1012.2 |
| 20260506021556 | 87 | 195 | 4.0 | 12.0 | 0.00 | 0.00 | 0.00 | 59 | 1012.4 |
| 20260506020057 | 86 | 230 | 4.0 | 14.0 | 0.00 | 0.00 | 0.00 | 60 | 1012.5 |
| 20260506014552 | 86 | 205 | 5.0 | 13.0 | 0.00 | 0.00 | 0.00 | 60 | 1012.6 |
| 20260506013102 | 86 | 237 | 6.0 | 11.0 | 0.00 | 0.00 | 0.00 | 60 | 1012.7 |
| 20260506011545 | 84 | 254 | 5.0 | 12.0 | 0.00 | 0.00 | 0.00 | 61 | 1012.8 |
| 20260506010054 | 84 | 209 | 5.0 | 15.0 | 0.00 | 0.00 | 0.00 | 62 | 1013.0 |
| 20260506004540 | 83 | 260 | 6.0 | 13.0 | 0.00 | 0.00 | 0.00 | 65 | 1013.1 |
| 20260506003039 | 83 | 235 | 2.0 | 10.0 | 0.00 | 0.00 | 0.00 | 66 | 1013.2 |
| 20260506001535 | 82 | 263 | 2.0 | 10.0 | 0.00 | 0.00 | 0.00 | 68 | 1013.2 |
| 20260506000034 | 81 | 247 | 4.0 | 11.0 | 0.00 | 0.00 | 0.00 | 68 | 1013.4 |
| 20260505234534 | 81 | 234 | 3.0 | 8.0 | 0.00 | 0.00 | 0.00 | 70 | 1013.4 |
| 20260505233028 | 80 | 233 | 3.0 | 7.0 | 0.00 | 0.00 | 0.00 | 71 | 1013.3 |
| 20260505231526 | 80 | 263 | 2.0 | 7.0 | 0.00 | 0.00 | 0.00 | 74 | 1013.3 |
| 20260505230031 | 78 | 258 | 2.0 | 7.0 | 0.00 | 0.00 | 0.00 | 75 | 1013.2 |
| 20260505224518 | 78 | 212 | 0.0 | 5.0 | 0.00 | 0.00 | 0.00 | 77 | 1012.9 |
| 20260505223020 | 77 | 225 | 1.0 | 5.0 | 0.00 | 0.00 | 0.00 | 78 | 1012.8 |
| 20260505221519 | 76 | 199 | 0.0 | 2.0 | 0.00 | 0.00 | 0.00 | 79 | 1012.7 |
| 20260505220022 | 74 | 256 | 0.0 | 0.0 | 0.00 | 0.00 | 0.00 | 78 | 1012.5 |
| 20260505214518 | 73 | 256 | 0.0 | 0.0 | 0.00 | 0.00 | 0.00 | 78 | 1012.4 |
| 20260505213024 | 73 | 256 | 0.0 | 0.0 | 0.00 | 0.00 | 0.00 | 78 | 1012.3 |
| 20260505211521 | 73 | 256 | 0.0 | 0.0 | 0.00 | 0.00 | 0.00 | 79 | 1012.0 |
| 20260505210017 | 74 | 256 | 0.0 | 0.0 | 0.00 | 0.00 | 0.00 | 79 | 1011.7 |
| 20260505204514 | 74 | 256 | 0.0 | 1.0 | 0.00 | 0.00 | 0.00 | 80 | 1011.5 |
| 20260505203023 | 74 | 256 | 0.0 | 1.0 | 0.00 | 0.00 | 0.00 | 80 | 1011.3 |
| 20260505201511 | 74 | 268 | 0.0 | 1.0 | 0.00 | 0.00 | 0.00 | 80 | 1011.1 |
| 20260505200010 | 75 | 232 | 0.0 | 1.0 | 0.00 | 0.00 | 0.00 | 80 | 1011.0 |
| 20260505194509 | 75 | 232 | 0.0 | 0.0 | 0.00 | 0.00 | 0.00 | 80 | 1010.9 |
| 20260505193009 | 75 | 232 | 0.0 | 1.0 | 0.00 | 0.00 | 0.00 | 80 | 1011.0 |
| 20260505191507 | 75 | 229 | 0.0 | 2.0 | 0.00 | 0.00 | 0.00 | 80 | 1010.8 |
| 20260505190006 | 75 | 224 | 0.0 | 1.0 | 0.00 | 0.00 | 0.00 | 80 | 1010.8 |
| 20260505184506 | 75 | 213 | 0.0 | 2.0 | 0.00 | 0.00 | 0.00 | 80 | 1010.8 |
| 20260505183005 | 75 | 248 | 0.0 | 1.0 | 0.00 | 0.00 | 0.00 | 80 | 1010.9 |
| 20260505181503 | 76 | 248 | 0.0 | 0.0 | 0.00 | 0.00 | 0.00 | 80 | 1010.9 |
| 20260505180001 | 76 | 248 | 0.0 | 0.0 | 0.00 | 0.00 | 0.00 | 80 | 1011.1 |
| 20260505174600 | 77 | 248 | 0.0 | 0.0 | 0.00 | 0.00 | 0.00 | 79 | 1011.1 |
| 20260505173002 | 77 | 231 | 0.0 | 2.0 | 0.00 | 0.00 | 0.00 | 79 | 1011.1 |
| 20260505171502 | 77 | 223 | 0.0 | 0.0 | 0.00 | 0.00 | 0.00 | 79 | 1011.2 |
| 20260505170003 | 77 | 278 | 0.0 | 0.0 | 0.00 | 0.00 | 0.00 | 79 | 1011.3 |
| 20260505164601 | 77 | 278 | 0.0 | 0.0 | 0.00 | 0.00 | 0.00 | 79 | 1011.4 |
| 20260505163058 | 78 | 279 | 0.0 | 3.0 | 0.00 | 0.00 | 0.00 | 79 | 1011.3 |
| 20260505161621 | 78 | 276 | 0.0 | 4.0 | 0.00 | 0.00 | 0.00 | 78 | 1011.4 |
| 20260505153100 | 79 | 274 | 0.0 | 2.0 | 0.00 | 0.00 | 0.00 | 72 | 1011.7 |
| 20260505151618 | 79 | 275 | 0.0 | 4.0 | 0.00 | 0.00 | 0.00 | 72 | 1011.8 |
| 20260505124508 | 78 | 104 | 0.0 | 0.0 | 0.00 | 0.00 | 0.00 | 76 | 1011.6 |
| 20260505123051 | 78 | 104 | 0.0 | 0.0 | 0.00 | 0.00 | 0.00 | 77 | 1011.7 |
| 20260505121550 | 79 | 104 | 0.0 | 0.0 | 0.00 | 0.00 | 0.00 | 79 | 1011.7 |
| 20260505120105 | 79 | 104 | 0.0 | 0.0 | 0.00 | 0.00 | 0.00 | 80 | 1011.7 |
| 20260505114547 | 79 | 104 | 0.0 | 0.0 | 0.00 | 0.00 | 0.00 | 80 | 1011.5 |
| 20260505113048 | 80 | 104 | 0.0 | 0.0 | 0.00 | 0.00 | 0.00 | 79 | 1011.5 |
| 20260505111545 | 80 | 104 | 0.0 | 0.0 | 0.00 | 0.00 | 0.00 | 79 | 1011.4 |
| 20260505101541 | 81 | 104 | 0.0 | 1.0 | 0.00 | 0.00 | 0.00 | 77 | 1010.8 |
| 20260505100042 | 82 | 161 | 0.0 | 0.0 | 0.00 | 0.00 | 0.00 | 76 | 1010.7 |
| 20260505094540 | 82 | 191 | 0.0 | 2.0 | 0.00 | 0.00 | 0.00 | 75 | 1010.6 |
| 20260505093042 | 83 | 184 | 0.0 | 1.0 | 0.00 | 0.00 | 0.00 | 74 | 1010.4 |
| 20260505091539 | 83 | 199 | 0.0 | 4.0 | 0.00 | 0.00 | 0.00 | 73 | 1010.3 |
| 20260505090045 | 84 | 195 | 0.0 | 3.0 | 0.00 | 0.00 | 0.00 | 72 | 1010.2 |
| 20260505084538 | 86 | 111 | 0.0 | 3.0 | 0.00 | 0.00 | 0.00 | 69 | 1010.2 |
| 20260505083037 | 87 | 163 | 0.0 | 5.0 | 0.00 | 0.00 | 0.00 | 66 | 1010.0 |
| 20260505081540 | 88 | 149 | 0.0 | 5.0 | 0.00 | 0.00 | 0.00 | 65 | 1009.9 |
| 20260505080038 | 90 | 121 | 0.0 | 3.0 | 0.00 | 0.00 | 0.00 | 52 | 1009.7 |
| 20260505074535 | 91 | 200 | 0.0 | 5.0 | 0.00 | 0.00 | 0.00 | 50 | 1009.6 |
| 20260505073052 | 91 | 189 | 1.0 | 13.0 | 0.00 | 0.00 | 0.00 | 49 | 1009.5 |
| 20260505071535 | 91 | 280 | 0.0 | 5.0 | 0.00 | 0.00 | 0.00 | 51 | 1009.5 |
| 20260505070035 | 90 | 235 | 2.0 | 9.0 | 0.00 | 0.00 | 0.00 | 51 | 1009.3 |
| 20260505064540 | 92 | 226 | 4.0 | 8.0 | 0.00 | 0.00 | 0.00 | 51 | 1009.1 |
| 20260505063038 | 92 | 210 | 2.0 | 8.0 | 0.00 | 0.00 | 0.00 | 50 | 1009.1 |
| 20260505061548 | 92 | 239 | 0.0 | 8.0 | 0.00 | 0.00 | 0.00 | 50 | 1009.1 |
| 20260505060036 | 92 | 216 | 4.0 | 11.0 | 0.00 | 0.00 | 0.00 | 49 | 1009.1 |